FW1436 Weather Reports


Display with metric or nautical units.
time (UTC)temp
F
wind
direction
speed
MPH
gust
MPH
rain 1hr
in
rain 24hr
in
rain mn
in
humidity
%
barometer
mb
20260506233003 53 68 0.0 2.0 0.00 0.00 0.00 63 1008.6
20260506231502 53 46 0.0 1.0 0.00 0.00 0.00 62 1008.6
20260506230001 53 82 0.0 1.0 0.00 0.00 0.00 61 1008.6
20260506224618 53 71 0.0 2.0 0.00 0.00 0.00 59 1008.5
20260506223059 54 75 0.0 1.0 0.00 0.00 0.00 57 1008.4
20260506221556 54 69 0.0 0.0 0.00 0.00 0.00 54 1008.4
20260506220104 54 68 0.0 0.0 0.00 0.00 0.00 56 1008.4
20260506214552 55 68 0.0 0.0 0.00 0.00 0.00 53 1008.5
20260506213051 55 68 0.0 0.0 0.00 0.00 0.00 54 1008.4
20260506211555 55 69 0.0 1.0 0.00 0.00 0.00 54 1008.4
20260506210050 55 69 0.0 0.0 0.00 0.00 0.00 55 1008.3
20260506204550 56 69 0.0 1.0 0.00 0.00 0.00 54 1008.3
20260506203056 57 69 0.0 1.0 0.00 0.00 0.00 52 1008.2
20260506201549 57 122 0.0 0.0 0.00 0.00 0.00 51 1008.0
20260506200048 59 122 0.0 1.0 0.00 0.00 0.00 50 1008.0
20260506194552 60 122 0.0 0.0 0.00 0.00 0.00 45 1007.8
20260506193051 61 122 0.0 0.0 0.00 0.00 0.00 43 1007.7
20260506191547 62 125 0.0 2.0 0.00 0.00 0.00 41 1007.8
20260506190046 63 127 0.0 2.0 0.00 0.00 0.00 41 1007.7
20260506184546 65 143 0.0 3.0 0.00 0.00 0.00 38 1007.6
20260506183046 67 130 1.0 2.0 0.00 0.00 0.00 36 1007.6
20260506181559 68 134 0.0 3.0 0.00 0.00 0.00 35 1007.6
20260506180044 67 146 1.0 3.0 0.00 0.00 0.00 36 1007.6
20260506174542 68 162 1.0 3.0 0.00 0.00 0.00 36 1007.7
20260506173059 67 182 1.0 4.0 0.00 0.00 0.00 37 1007.8
20260506171547 68 104 1.0 5.0 0.00 0.00 0.00 37 1007.7
20260506170039 67 271 0.0 6.0 0.00 0.00 0.00 38 1007.8
20260506164539 67 153 1.0 7.0 0.00 0.00 0.00 37 1007.8
20260506163038 67 96 2.0 7.0 0.00 0.00 0.00 39 1007.9
20260506161537 67 168 1.0 7.0 0.00 0.00 0.00 38 1007.9
20260506160040 68 18 1.0 6.0 0.00 0.00 0.00 37 1008.0
20260506154535 66 352 1.0 5.0 0.00 0.00 0.00 38 1008.1
20260506153033 66 235 2.0 8.0 0.00 0.00 0.00 38 1008.2
20260506151533 66 167 2.0 9.0 0.00 0.00 0.00 41 1008.3
20260506150031 65 139 2.0 12.0 0.00 0.00 0.00 40 1008.4
20260506144529 66 219 1.0 5.0 0.00 0.00 0.00 39 1008.6
20260506143028 68 176 0.0 4.0 0.00 0.00 0.00 40 1008.8
20260506141523 67 95 1.0 3.0 0.00 0.00 0.00 40 1009.0
20260506140022 65 134 3.0 5.0 0.00 0.00 0.00 41 1009.2
20260506134522 66 248 0.0 4.0 0.00 0.00 0.00 43 1009.4
20260506133016 65 221 2.0 7.0 0.00 0.00 0.00 42 1009.5
20260506131537 65 96 1.0 6.0 0.00 0.00 0.00 44 1009.6
20260506130023 64 52 2.0 6.0 0.00 0.00 0.00 45 1009.7
20260506124514 63 74 1.0 4.0 0.00 0.00 0.00 46 1009.9
20260506123010 64 86 2.0 5.0 0.00 0.00 0.00 45 1010.0
20260506121507 63 281 1.0 5.0 0.00 0.00 0.00 46 1010.2
20260506120013 62 342 2.0 7.0 0.00 0.00 0.00 48 1010.3
20260506114506 62 213 0.0 9.0 0.00 0.00 0.00 48 1010.5
20260506113002 61 67 2.0 11.0 0.00 0.00 0.00 50 1010.4
20260506111600 60 84 1.0 7.0 0.00 0.00 0.00 51 1010.6
20260506110104 60 45 1.0 6.0 0.00 0.00 0.00 50 1010.7
20260506104558 59 142 1.0 7.0 0.00 0.00 0.00 52 1010.8
20260506103054 60 169 2.0 7.0 0.00 0.00 0.00 54 1010.9
20260506101551 57 275 0.0 6.0 0.00 0.00 0.00 54 1011.0
20260506100050 58 238 2.0 6.0 0.00 0.00 0.00 56 1011.2
20260506094604 57 155 2.0 5.0 0.00 0.00 0.00 59 1011.3
20260506093047 57 112 3.0 8.0 0.00 0.00 0.00 58 1011.1
20260506091548 56 89 3.0 7.0 0.00 0.00 0.00 60 1011.2
20260506090042 55 272 1.0 5.0 0.00 0.00 0.00 62 1011.2
20260506084543 55 94 0.0 5.0 0.00 0.00 0.00 63 1011.2
20260506083037 53 140 3.0 7.0 0.00 0.00 0.00 64 1011.2
20260506081536 53 76 4.0 7.0 0.00 0.00 0.00 64 1011.2
20260506073029 51 101 3.0 7.0 0.00 0.00 0.00 69 1011.2
20260506071531 50 70 0.0 5.0 0.00 0.00 0.00 72 1011.2
20260506061524 48 326 0.0 1.0 0.00 0.00 0.00 75 1010.9
20260506044516 42 242 0.0 0.0 0.00 0.00 0.00 84 1010.5
20260506043014 43 242 0.0 0.0 0.00 0.00 0.00 81 1010.4
20260506041515 44 242 0.0 0.0 0.00 0.00 0.00 81 1010.3
20260506040013 43 242 0.0 0.0 0.00 0.00 0.00 81 1010.4
20260506034513 42 242 0.0 0.0 0.00 0.00 0.00 85 1010.5
20260506033010 42 242 0.0 0.0 0.00 0.00 0.00 83 1010.5
20260506031509 43 242 0.0 0.0 0.00 0.00 0.00 82 1010.4
20260506030016 43 242 0.0 0.0 0.00 0.00 0.00 81 1010.4
20260506024514 43 242 0.0 0.0 0.00 0.00 0.00 81 1010.3
20260506023003 44 242 0.0 0.0 0.00 0.00 0.00 80 1010.4
20260506021503 44 242 0.0 0.0 0.00 0.00 0.00 80 1010.4
20260506020002 44 242 0.0 0.0 0.00 0.00 0.00 80 1010.6
20260506014501 44 242 0.0 0.0 0.00 0.00 0.00 80 1010.4
20260506013101 44 242 0.0 0.0 0.00 0.00 0.00 80 1010.4
20260506011559 45 242 0.0 0.0 0.00 0.00 0.00 79 1010.5
20260506010057 45 242 0.0 0.0 0.00 0.00 0.00 78 1010.6
20260506004556 45 242 0.0 0.0 0.00 0.00 0.00 76 1010.6
20260506003054 45 242 0.0 2.0 0.00 0.00 0.00 76 1010.7
20260506001552 46 243 1.0 3.0 0.00 0.00 0.00 75 1010.7
20260506000049 47 169 0.0 0.0 0.00 0.00 0.00 73 1010.7
20260505234550 47 148 0.0 2.0 0.00 0.00 0.00 72 1010.6